Flight Briefing for CPX434

Departure Arrival
El Paso International Airport (KELP)
Click to view FAA NOTAMS
Sacramento International Airport (KSMF)
Click to view FAA NOTAMS
Departure Time Arrival Time
N/A N/A
Aircraft Distance
B757-200SF 852nm
Departure METAR Arrival METAR
KELP 230651Z 24009KT 10SM CLR 23/M04 A2979 RMK AO2 SLP011 T02331044 403390172 KSMF 230653Z 33008KT 10SM BKN120 BKN220 17/12 A2974 RMK AO2 SLP069 T01720122
Suggested Route
ATKNN5 FLOGS ITUCO Q2 BOILE J50 EHF NURAY SUUTR2


View recent IFR Routes data
Notes



Charts and Procedures

Charts for KELP
No chart available
Charts for KSMF
No chart available

Windy.com Weather Map